{"data":{"norad_id":46674,"intl_designator":"2020-073E","name":"STARLINK-1718","alt_names":[],"object_type":"PAYLOAD","status":"ACTIVE","operator":null,"country":"US","launch_date":"2020-10-18","launch_site_code":"AFETR","launch_vehicle":null,"mission":null,"orbit_class":"UNKNOWN","rcs_meters":null,"size_class":null,"mass_kg":null,"dimensions":null,"purposes":["comms"],"wikipedia_slug":null,"has_3d_model":false,"image_url":null,"decayed_at":null,"tle_current":{"epoch":"2026-05-25T03:28:43.101120Z","epoch_age_seconds":59203,"freshness":"FRESH","line1":"1 46674U 20073E   26145.14494330  .00083272  00000+0  68284-3 0  9997","line2":"2 46674  53.0422 213.5545 0002660 305.1143  54.9624 15.69791581309285","mean_motion":15.69791581,"eccentricity":0.000266,"inclination_deg":53.0422,"raan_deg":213.5545,"arg_perigee_deg":305.1143,"mean_anomaly_deg":54.9624,"bstar":0.00068284,"rev_number":30928,"period_min":91.731922723313,"perigee_km":357.70109727409,"apogee_km":361.28551659739,"semimajor_km":6737.6303069357,"source":"CELESTRAK","updated_at":"2026-05-25T13:38:16.514665Z"}}}